Location: San Gennaro Vesuviano
(40.8833°N, 14.5333°E)
Time: 09:27:44
(UTC+00:00)

Helios 1A Rocket - Pass Details

Date: 22 April 2021
Orbit: 563 x 584 km, 98.3° (Epoch: 10 May)

Event Time Altitude Azimuth Distance (km) Brightness Sun altitude
Rises 18:38:04 0° 175° (S) 2,763 6.1 -9.4°
Reaches altitude 10° 18:40:13 10° 179° (S) 1,874 5.3 -9.8°
Maximum altitude 18:44:13 58° 259° (W) 678 3.6 -10.5°
Drops below altitude 10° 18:48:16 10° 339° (NNW) 1,901 6.3 -11.2°
Sets 18:50:29 0° 343° (NNW) 2,808 7.2 -11.5°
